User: anonymous   Login
Location: Rehoboth Beach
(38.7438°N, 75.1341°W)
Time: 09:11:32
(UTC-04:00)
Language:

Cosmos 1452 Rocket - Orbit

View from above orbital plane
View from above orbital plane
View from above satellite
View from above satellite

Ground track
Ground track

The orbit data is extracted from the following two-line orbital elements,

1 13992U 83031B   16179.49221547  .00000046  00000-0  24639-4 0  9995
2 13992  74.0543 297.6612 0005150 356.3555  73.2798 14.36040852737898
Epoch (UTC): 27 June 2016 11:48:47
Eccentricity: 0.0005150
inclination: 74.0543°
perigee height: 768 km
apogee height: 775 km
right ascension of ascending node: 297.6612°
argument of perigee: 356.3555°
revolutions per day: 14.36040852
mean anomaly at epoch: 73.2798°
orbit number at epoch: 73789

The dashed part of the orbit path shows where the satellite is in the earth's shadow,  

DLR